EW7948 Weather Reports


time (UTC)temp
F
wind
direction
speed
knots
gust
knots
rain 1hr
in
rain 24hr
in
rain mn
in
humidity
%
barometer
mb
20260506160037 53 24 8.7 12.2 0.00 0.02 0.02 48 1010.5
20260506154536 53 39 7.8 12.2 0.00 0.02 0.02 51 1010.3
20260506153014 51 19 7.8 13.0 0.00 0.02 0.02 52 1010.1
20260506151521 50 17 8.7 11.3 0.00 0.02 0.02 55 1009.7
20260506150010 49 21 7.8 13.0 0.00 0.02 0.02 55 1009.3
20260506144508 49 17 7.0 11.3 0.00 0.02 0.02 58 1009.3
20260506143007 48 38 10.4 14.8 0.00 0.02 0.02 58 1009.1
20260506141505 48 24 10.4 15.6 0.00 0.02 0.02 60 1009.0
20260506140003 47 36 9.6 13.9 0.00 0.02 0.02 66 1008.6
20260506134501 46 5 7.8 13.9 0.00 0.02 0.02 70 1008.5
20260506133104 45 30 10.4 15.6 0.01 0.02 0.02 72 1008.3
20260506131556 44 5 7.0 11.3 0.01 0.02 0.02 77 1008.0
20260506130055 44 19 9.6 15.6 0.02 0.02 0.02 78 1007.7
20260506124555 44 360 9.6 19.1 0.02 0.02 0.02 76 1007.4
20260506123048 44 32 9.6 18.2 0.01 0.01 0.01 78 1006.9
20260506121545 45 16 12.2 22.6 0.01 0.01 0.01 77 1006.3
20260506120045 46 26 16.5 28.7 0.00 0.00 0.00 73 1006.0
20260506114536 52 24 9.6 16.5 0.00 0.00 0.00 63 1005.2
20260506113040 52 5 4.3 7.8 0.00 0.00 0.00 67 1004.4
20260506111530 52 340 2.6 5.2 0.00 0.00 0.00 60 1004.3
20260506110033 53 340 1.7 3.5 0.00 0.00 0.00 58 1004.1
20260506104525 53 340 0.9 4.3 0.00 0.00 0.00 57 1003.7
20260506103030 54 341 1.7 4.3 0.00 0.00 0.00 58 1003.4
20260506101528 54 5 2.6 7.0 0.00 0.00 0.00 58 1003.1
20260506100029 53 331 2.6 7.0 0.00 0.00 0.00 58 1003.1
20260506094519 53 320 6.1 9.6 0.00 0.00 0.00 59 1002.9
20260506093018 53 348 2.6 5.2 0.00 0.00 0.00 59 1002.8
20260506091515 52 22 2.6 5.2 0.00 0.00 0.00 60 1002.6
20260506090013 51 32 0.0 1.7 0.00 0.00 0.00 60 1002.6
20260506084510 52 32 1.7 3.5 0.00 0.00 0.00 59 1002.5
20260506083010 52 32 0.0 1.7 0.00 0.00 0.00 55 1002.4
20260506081506 53 32 0.9 3.5 0.00 0.00 0.00 56 1002.6
20260506073001 53 40 1.7 3.5 0.00 0.00 0.00 54 1002.4
20260506071559 54 49 0.9 5.2 0.00 0.00 0.00 52 1002.4
20260506061554 55 69 2.6 5.2 0.00 0.00 0.00 52 1001.9
20260506044540 59 16 7.0 11.3 0.00 0.00 0.00 48 1001.5
20260506043038 60 360 5.2 9.6 0.00 0.00 0.00 46 1001.3
20260506041539 60 19 6.1 9.6 0.00 0.00 0.00 47 1001.0
20260506040039 60 22 4.3 8.7 0.00 0.00 0.00 47 1000.6
20260506034543 59 17 5.2 8.7 0.00 0.00 0.00 47 1000.5
20260506033043 59 46 4.3 7.8 0.00 0.00 0.00 48 1000.2
20260506031542 59 46 3.5 7.0 0.00 0.00 0.00 48 999.9
20260506030043 59 32 3.5 5.2 0.00 0.00 0.00 48 999.7
20260506024540 59 15 3.5 7.8 0.00 0.00 0.00 47 999.6
20260506023053 60 360 5.2 8.7 0.00 0.00 0.00 46 999.2
20260506021545 60 360 7.8 12.2 0.00 0.00 0.00 45 999.0
20260506020040 61 12 6.1 12.2 0.00 0.00 0.00 44 998.8
20260506014540 61 9 7.0 12.2 0.00 0.00 0.00 45 998.8
20260506013137 61 340 7.0 13.0 0.00 0.00 0.00 46 998.6
20260506011509 61 344 9.6 16.5 0.00 0.00 0.00 46 998.3
20260506010042 61 29 9.6 18.2 0.00 0.00 0.00 45 998.1
20260506004506 61 44 13.0 18.2 0.00 0.00 0.00 44 998.5
20260506003025 62 5 13.0 19.1 0.00 0.00 0.00 41 998.6
20260506001546 63 5 11.3 18.2 0.00 0.00 0.00 41 998.3
20260506000041 63 350 9.6 22.6 0.00 0.00 0.00 41 998.1
20260505234601 64 16 15.6 24.3 0.00 0.00 0.00 39 997.5
20260505233042 67 17 18.2 32.2 0.00 0.00 0.00 33 996.9
20260505231539 72 30 16.5 23.5 0.00 0.00 0.00 24 996.4
20260505230038 74 322 4.3 8.7 0.00 0.00 0.00 12 996.2
20260505224537 76 253 2.6 8.7 0.00 0.00 0.00 11 996.2
20260505223037 78 240 3.5 8.7 0.00 0.00 0.00 10 996.4
20260505221531 77 146 1.7 7.8 0.00 0.00 0.00 11 996.5
20260505220030 76 341 5.2 8.7 0.00 0.00 0.00 12 996.8
20260505214556 77 255 5.2 11.3 0.00 0.00 0.00 13 997.0
20260505213026 77 200 2.6 12.2 0.00 0.00 0.00 11 997.1
20260505211524 76 215 5.2 10.4 0.00 0.00 0.00 12 997.4
20260505210020 75 221 3.5 12.2 0.00 0.00 0.00 12 997.6
20260505204520 75 302 2.6 14.8 0.00 0.00 0.00 13 997.9
20260505203031 75 159 6.1 13.0 0.00 0.00 0.00 13 998.0
20260505201523 74 136 7.0 18.2 0.00 0.00 0.00 11 998.1
20260505200013 74 221 7.0 13.9 0.00 0.00 0.00 15 998.4
20260505194513 73 148 4.3 10.4 0.00 0.00 0.00 19 998.3
20260505193010 73 255 2.6 10.4 0.00 0.00 0.00 20 998.5
20260505191509 72 210 5.2 8.7 0.00 0.00 0.00 19 998.7
20260505190008 72 309 3.5 8.7 0.00 0.00 0.00 23 998.8
20260505184506 72 227 2.6 13.0 0.00 0.00 0.00 21 998.9
20260505183013 72 171 5.2 14.8 0.00 0.00 0.00 24 999.1
20260505181504 72 171 6.1 9.6 0.00 0.00 0.00 22 999.3
20260505180001 71 230 5.2 10.4 0.00 0.00 0.00 21 999.5
20260505174605 71 176 4.3 10.4 0.00 0.00 0.00 22 999.7
20260505173055 69 209 5.2 14.8 0.00 0.00 0.00 24 999.9
20260505171553 68 242 7.0 14.8 0.00 0.00 0.00 23 999.8
20260505170050 67 236 3.5 9.6 0.00 0.00 0.00 25 999.8
20260505164551 67 189 6.1 10.4 0.00 0.00 0.00 26 999.8
20260505163052 67 238 7.0 13.9 0.00 0.00 0.00 28 999.8
20260505161548 67 219 3.5 7.0 0.00 0.00 0.00 29 999.9